Location: *
(33.8649°S, 62.1526°E)
Time: 04:11:52
(UTC+00:00)

Okean 2 Rocket - Pass Details

Date: 17 January 2021
Orbit: 617 x 641 km, 82.5° (Epoch: 27 February)

Event Time Altitude Azimuth Distance (km) Brightness Sun altitude
Rises 22:55:30 0° 183° (S) 2,981 7.2 -21.6°
Reaches altitude 10° 22:57:48 10° 180° (S) 2,064 6.3 -21.3°
Maximum altitude 23:02:22 65° 98° (E) 715 3.5 -20.7°
Enters shadow 23:05:27 20° 19° (NNE) 1,494 4.8 -20.2°
